Tracking 29933 objects as of 2-Dec-2024
HD Live streaming from Space Station
objects crossing your sky now

STARLINK-31569

Track STARLINK-31569 now!
10-day predictions
STARLINK-31569 is classified as:


NORAD ID: 59857
Int'l Code: 2024-097Y
Perigee: 449.8 km
Apogee: 452.5 km
Inclination: 43.0 °
Period: 93.5 minutes
Semi major axis: 6822 km
RCS: Unknown
Launch date: May 23, 2024
Source: United States (US)
Launch site: AIR FORCE EASTERN TEST RANGE (AFETR)
Your satellite tracking list
Your tracking list is empty




NASA's NSSDC Master Catalog

Two Line Element Set (TLE):
1 59857U 24097Y   24337.13602111  .00006243  00000-0  15646-3 0  9990
2 59857  43.0050  18.0082 0001982 283.5596  76.5040 15.40724515 31061
Source of the keplerian elements: AFSPC